Location: Sternwarte ZA, Rosenfeld-Brittheim
(48.2889°N, 8.6789°E)
Time: 08:02:27
(UTC+02:00)

ISS - Pass Details

Date: 21 May 2021
Orbit: 417 x 422 km, 51.6° (Epoch: 18 June)

Event Time Altitude Azimuth Distance (km) Brightness Sun altitude
Rises 22:06:27 0° 267° (W) 2,362 0.8 -8.7°
Reaches altitude 10° 22:08:35 10° 273° (W) 1,500 -0.2 -8.9°
Maximum altitude 22:11:53 51° 350° (N) 539 -2.8 -9.3°
Drops below altitude 10° 22:15:11 10° 68° (ENE) 1,506 -1.2 -9.7°
Sets 22:17:20 0° 74° (ENE) 2,372 -0.2 -9.9°
